• In Hungary
  • List of Countries
  • For 7 days
  • Water Temperature
  • Satellite Maps
  • Weather Map
  • News
  • Weather Widgets
  • user-avatar
    Login

    Hourly Weather San Luis

    Today, 20 January, Saturday

    Time Temperature Precipitation Wind Pressure Humidity
    00:00 +26°C° 0 mm 4 mps 698 mmHg 29%
    01:00 +26°C° 0 mm 4 mps 698 mmHg 29%
    02:00 +26°C° 0 mm 5 mps 698 mmHg 29%
    03:00 +25°C° 0 mm 5 mps 698 mmHg 31%
    04:00 +25°C° 0 mm 5 mps 698 mmHg 33%
    05:00 +23°C° 0 mm 5 mps 697 mmHg 34%
    06:00 +26°C° 0 mm 6 mps 698 mmHg 34%
    07:00 +27°C° 0 mm 7 mps 698 mmHg 34%
    08:00 +28°C° 0 mm 7 mps 698 mmHg 34%
    09:00 +30°C° 0 mm 7 mps 698 mmHg 31%
    10:00 +32°C° 0 mm 6 mps 698 mmHg 28%
    11:00 +34°C° 0 mm 5 mps 698 mmHg 25%
    12:00 +34°C° 0 mm 5 mps 698 mmHg 25%
    13:00 +34°C° 0 mm 4 mps 697 mmHg 25%
    14:00 +34°C° 0 mm 4 mps 697 mmHg 25%
    15:00 +34°C° 0 mm 4 mps 696 mmHg 26%
    16:00 +34°C° 0 mm 3 mps 696 mmHg 26%
    17:00 +34°C° 0 mm 3 mps 695 mmHg 26%
    18:00 +32°C° 0.1 mm 4 mps 695 mmHg 30%
    19:00 +30°C° 0.1 mm 4 mps 695 mmHg 34%
    20:00 +28°C° 0.1 mm 5 mps 695 mmHg 38%
    21:00 +28°C° 0.1 mm 6 mps 696 mmHg 40%
    22:00 +27°C° 0.1 mm 6 mps 696 mmHg 42%
    23:00 +26°C° 0.1 mm 7 mps 696 mmHg 45%

    Tomorrow, 21 January, Sunday

    Time Temperature Precipitation Wind Pressure Humidity
    00:00 +26°C° 0 mm 7 mps 696 mmHg 47%
    01:00 +24°C° 0 mm 8 mps 696 mmHg 50%
    02:00 +24°C° 0 mm 8 mps 696 mmHg 52%
    03:00 +23°C° 0 mm 8 mps 695 mmHg 54%
    04:00 +22°C° 0 mm 7 mps 695 mmHg 56%
    05:00 +22°C° 0 mm 6 mps 695 mmHg 58%
    06:00 +23°C° 0 mm 6 mps 695 mmHg 52%
    07:00 +26°C° 0 mm 6 mps 696 mmHg 47%
    08:00 +27°C° 0 mm 6 mps 696 mmHg 41%
    09:00 +28°C° 0 mm 6 mps 696 mmHg 36%
    10:00 +30°C° 0 mm 5 mps 696 mmHg 32%
    11:00 +33°C° 0 mm 5 mps 696 mmHg 27%
    12:00 +33°C° 0 mm 4 mps 696 mmHg 26%
    13:00 +33°C° 0 mm 4 mps 695 mmHg 25%
    14:00 +34°C° 0 mm 4 mps 695 mmHg 25%
    15:00 +34°C° 0 mm 3 mps 694 mmHg 26%
    16:00 +33°C° 0 mm 3 mps 694 mmHg 27%
    17:00 +33°C° 0 mm 3 mps 693 mmHg 28%
    18:00 +31°C° 0 mm 3 mps 693 mmHg 31%
    19:00 +29°C° 0 mm 3 mps 693 mmHg 34%
    20:00 +27°C° 0 mm 3 mps 693 mmHg 37%
    21:00 +27°C° 0.2 mm 3 mps 693 mmHg 40%
    22:00 +26°C° 0.2 mm 3 mps 693 mmHg 44%
    23:00 +25°C° 0.2 mm 3 mps 694 mmHg 47%

    Day after tomorrow, 22 January, Monday

    Time Temperature Precipitation Wind Pressure Humidity
    00:00 +25°C° 0.1 mm 3 mps 693 mmHg 47%
    01:00 +24°C° 0.1 mm 3 mps 693 mmHg 47%
    02:00 +23°C° 0.1 mm 4 mps 693 mmHg 47%
    03:00 +23°C° 0 mm 4 mps 693 mmHg 49%
    04:00 +22°C° 0 mm 4 mps 693 mmHg 50%
    05:00 +22°C° 0 mm 4 mps 692 mmHg 51%
    06:00 +25°C° 0 mm 5 mps 693 mmHg 48%
    07:00 +26°C° 0 mm 5 mps 693 mmHg 44%
    08:00 +28°C° 0 mm 5 mps 694 mmHg 41%
    09:00 +29°C° 0 mm 5 mps 694 mmHg 36%
    10:00 +32°C° 0 mm 5 mps 694 mmHg 32%
    11:00 +33°C° 0 mm 4 mps 694 mmHg 28%
    12:00 +34°C° 0 mm 4 mps 694 mmHg 27%
    13:00 +35°C° 0 mm 3 mps 693 mmHg 25%
    14:00 +35°C° 0 mm 3 mps 692 mmHg 24%
    15:00 +35°C° 0 mm 3 mps 692 mmHg 24%
    16:00 +35°C° 0 mm 3 mps 691 mmHg 25%
    17:00 +35°C° 0 mm 3 mps 691 mmHg 25%
    18:00 +33°C° 0 mm 3 mps 691 mmHg 29%
    19:00 +31°C° 0 mm 3 mps 691 mmHg 32%
    20:00 +29°C° 0 mm 3 mps 691 mmHg 35%
    21:00 +27°C° 0.3 mm 5 mps 692 mmHg 41%
    22:00 +26°C° 0.3 mm 6 mps 692 mmHg 48%
    23:00 +23°C° 0.3 mm 8 mps 693 mmHg 54%

    23 January, Tuesday

    Time Temperature Precipitation Wind Pressure Humidity
    00:00 +23°C° 0.2 mm 7 mps 693 mmHg 56%
    01:00 +23°C° 0.2 mm 7 mps 693 mmHg 58%
    02:00 +22°C° 0.2 mm 6 mps 693 mmHg 60%
    03:00 +22°C° 0.1 mm 5 mps 693 mmHg 59%
    04:00 +23°C° 0.1 mm 4 mps 693 mmHg 57%
    05:00 +24°C° 0.1 mm 2 mps 693 mmHg 55%
    06:00 +25°C° 0 mm 2 mps 693 mmHg 50%
    07:00 +26°C° 0 mm 2 mps 694 mmHg 46%
    08:00 +28°C° 0 mm 2 mps 694 mmHg 41%
    09:00 +29°C° 0 mm 2 mps 694 mmHg 38%
    10:00 +30°C° 0 mm 2 mps 695 mmHg 34%
    11:00 +31°C° 0 mm 2 mps 695 mmHg 30%
    12:00 +32°C° 0 mm 2 mps 694 mmHg 28%
    13:00 +34°C° 0 mm 1 mps 694 mmHg 26%
    14:00 +35°C° 0 mm 1 mps 693 mmHg 23%
    15:00 +35°C° 0 mm 1 mps 693 mmHg 24%
    16:00 +35°C° 0 mm 1 mps 693 mmHg 24%
    17:00 +36°C° 0 mm 2 mps 692 mmHg 24%
    18:00 +34°C° 0 mm 2 mps 692 mmHg 28%
    19:00 +31°C° 0 mm 3 mps 692 mmHg 31%
    20:00 +29°C° 0 mm 3 mps 692 mmHg 35%
    21:00 +28°C° 0.1 mm 4 mps 693 mmHg 39%
    22:00 +28°C° 0.1 mm 4 mps 694 mmHg 42%
    23:00 +27°C° 0.1 mm 5 mps 694 mmHg 46%

    24 January, Wednesday

    Time Temperature Precipitation Wind Pressure Humidity
    00:00 +26°C° 0 mm 4 mps 694 mmHg 46%
    01:00 +26°C° 0 mm 3 mps 694 mmHg 45%
    02:00 +25°C° 0 mm 2 mps 694 mmHg 45%
    03:00 +25°C° 0.1 mm 3 mps 695 mmHg 45%
    04:00 +23°C° 0.1 mm 4 mps 695 mmHg 44%
    05:00 +23°C° 0.1 mm 4 mps 695 mmHg 44%
    06:00 +22°C° 0.4 mm 5 mps 696 mmHg 46%
    07:00 +22°C° 0.4 mm 6 mps 697 mmHg 47%
    08:00 +22°C° 0.4 mm 6 mps 698 mmHg 49%
    09:00 +24°C° 0.1 mm 6 mps 698 mmHg 47%
    10:00 +26°C° 0.1 mm 6 mps 699 mmHg 45%
    11:00 +28°C° 0.1 mm 6 mps 699 mmHg 43%
    12:00 +29°C° 0.2 mm 7 mps 699 mmHg 40%
    13:00 +30°C° 0.2 mm 7 mps 699 mmHg 38%
    14:00 +32°C° 0.2 mm 7 mps 698 mmHg 35%
    15:00 +32°C° 1.4 mm 8 mps 698 mmHg 37%
    16:00 +32°C° 1.4 mm 8 mps 698 mmHg 38%
    17:00 +31°C° 1.4 mm 9 mps 697 mmHg 39%
    18:00 +28°C° 1.1 mm 8 mps 697 mmHg 45%
    19:00 +26°C° 1.1 mm 8 mps 697 mmHg 51%
    20:00 +24°C° 1.1 mm 7 mps 698 mmHg 57%
    21:00 +23°C° 0.8 mm 7 mps 698 mmHg 58%
    22:00 +23°C° 0.8 mm 7 mps 698 mmHg 59%
    23:00 +22°C° 0.8 mm 7 mps 699 mmHg 60%

    25 January, Thursday

    Time Temperature Precipitation Wind Pressure Humidity
    00:00 +22°C° 0.1 mm 6 mps 698 mmHg 60%
    01:00 +22°C° 0.1 mm 6 mps 698 mmHg 59%
    02:00 +22°C° 0.1 mm 6 mps 698 mmHg 59%
    03:00 +21°C° 0 mm 5 mps 698 mmHg 59%
    04:00 +20°C° 0 mm 4 mps 697 mmHg 59%
    05:00 +19°C° 0 mm 4 mps 697 mmHg 59%
    06:00 +21°C° 0 mm 4 mps 698 mmHg 57%
    07:00 +22°C° 0 mm 4 mps 698 mmHg 54%
    08:00 +25°C° 0 mm 4 mps 699 mmHg 51%
    09:00 +27°C° 0.2 mm 4 mps 699 mmHg 47%
    10:00 +28°C° 0.2 mm 4 mps 699 mmHg 44%
    11:00 +30°C° 0.2 mm 3 mps 699 mmHg 40%
    12:00 +31°C° 0.7 mm 3 mps 698 mmHg 38%
    13:00 +33°C° 0.7 mm 3 mps 698 mmHg 36%
    14:00 +33°C° 0.7 mm 3 mps 697 mmHg 35%
    15:00 +33°C° 0.3 mm 3 mps 697 mmHg 35%
    16:00 +33°C° 0.3 mm 4 mps 696 mmHg 36%
    17:00 +32°C° 0.3 mm 4 mps 696 mmHg 37%
    18:00 +30°C° 0 mm 4 mps 696 mmHg 41%
    19:00 +29°C° 0 mm 4 mps 695 mmHg 45%
    20:00 +27°C° 0 mm 4 mps 695 mmHg 49%
    21:00 +27°C° 0.4 mm 4 mps 695 mmHg 54%
    22:00 +26°C° 0.4 mm 4 mps 696 mmHg 58%
    23:00 +25°C° 0.4 mm 5 mps 696 mmHg 63%
    Show more